Weather History for Hereford, TX

Change the Weather History Date:

Wednesday, February 19, 2014

  Actual Average (KAMA) Record (KAMA)
Temperature  
Mean Temperature 52 °F 41 °F  
Max Temperature 73 °F 55 °F 78 °F (2001)
Min Temperature 32 °F 27 °F 3 °F (1905)
Degree Days  
Heating Degree Days 12 24  
Month to date heating degree days 488  
Since 1 July heating degree days 3073  
Cooling Degree Days 0 0  
Month to date cooling degree days 0  
Year to date cooling degree days 0  
Growing Degree Days 2 (Base 50)    
Moisture  
Dew Point 17 °F    
Average Humidity 28    
Maximum Humidity 57    
Minimum Humidity 11    
Precipitation  
Precipitation 0.00 in 0.02 in 0.25 in (1987)
Month to date precipitation 0.39  
Year to date precipitation 1.11  
Snow  
Snow 0.00 in 0.10 in 2.70 in (1987)
Month to date snowfall 2.4  
Since 1 July snowfall 13.5  
Snow Depth -    
Sea Level Pressure  
Sea Level Pressure 29.79 in    
Wind  
Wind Speed 10 mph (WSW)    
Max Wind Speed 25 mph    
Max Gust Speed 31 mph    
Visibility 10 miles    
Events      
T = Trace of Precipitation, MM = Missing Value Source: NWS Daily Summary

Daily Weather History Graph

Daily Weather History Graph

Search for Another Location

Airport:

Trip Planner

Search our weather history database for the weather conditions in past years. The results will help you decide how hot, cold, wet, or windy it might be!

Date:

Astronomy

Feb. 19, 2014 Rise Set
Actual Time 7:30 AM CST 6:36 PM CST
Civil Twilight 7:04 AM CST 7:01 PM CST
Nautical Twilight 6:35 AM CST 7:31 PM CST
Astronomical Twilight 6:06 AM CST 8:00 PM CST
Moon 11:18 PM CST (2/19) 9:50 AM CST (2/19)
Length of Visible Light 11h 56m
Length of Day
11h 05m
Waning Gibbous, 79% of the Moon is Illuminated
Feb 19
Waning Gibbous
Feb 22
Last Quarter
Mar 1
New
Mar 8
First Quarter
Mar 16
Full

Hourly Weather History & Observations

Time (CST) Temp. Windchill Dew Point Humidity Pressure Visibility Wind Dir Wind Speed Gust Speed Precip Events Conditions
12:15 AM 47.8 °F - 14.0 °F 26% 29.99 in 10.0 mi NE 11.5 mph - N/A   Clear
12:35 AM 46.0 °F 40.6 °F 14.7 °F 28% 29.98 in 10.0 mi ENE 11.5 mph - N/A   Clear
12:55 AM 45.5 °F 40.3 °F 14.9 °F 29% 29.99 in 10.0 mi NE 10.4 mph - N/A   Clear
1:15 AM 45.0 °F 39.3 °F 15.6 °F 31% 29.98 in 10.0 mi ENE 11.5 mph - N/A   Clear
1:35 AM 46.4 °F 40.4 °F 16.3 °F 30% 29.97 in 10.0 mi ENE 13.8 mph - N/A   Clear
1:55 AM 45.9 °F - 16.7 °F 31% 29.97 in 10.0 mi North - - N/A   Clear
2:15 AM 45.5 °F 40.3 °F 17.1 °F 32% 29.96 in 10.0 mi NE 10.4 mph - N/A   Clear
2:35 AM 43.2 °F 39.0 °F 17.1 °F 35% 29.96 in 10.0 mi NE 6.9 mph - N/A   Clear
2:55 AM 41.2 °F 38.2 °F 17.4 °F 38% 29.96 in 10.0 mi NE 4.6 mph - N/A   Clear
3:15 AM 38.8 °F 33.2 °F 17.6 °F 42% 29.95 in 10.0 mi NE 8.1 mph - N/A   Clear
3:35 AM 37.8 °F 34.2 °F 17.8 °F 44% 29.94 in 10.0 mi NE 4.6 mph - N/A   Clear
3:55 AM 36.7 °F 32.0 °F 18.9 °F 49% 29.95 in 10.0 mi North 5.8 mph - N/A   Clear
4:15 AM 35.6 °F 29.9 °F 18.3 °F 50% 29.95 in 10.0 mi NNW 6.9 mph - N/A   Clear
4:35 AM 34.0 °F 26.6 °F 17.4 °F 51% 29.96 in 10.0 mi North 9.2 mph - N/A   Clear
4:55 AM 35.8 °F 29.4 °F 18.3 °F 49% 29.95 in 10.0 mi NNE 8.1 mph - N/A   Clear
5:15 AM 36.5 °F 32.7 °F 18.5 °F 48% 29.95 in 10.0 mi North 4.6 mph - N/A   Clear
5:35 AM 35.6 °F 29.9 °F 17.6 °F 48% 29.95 in 10.0 mi NE 6.9 mph - N/A   Clear
5:55 AM 34.5 °F 30.4 °F 18.9 °F 53% 29.94 in 10.0 mi North 4.6 mph - N/A   Clear
6:15 AM 34.7 °F 27.5 °F 17.4 °F 49% 29.94 in 10.0 mi NNW 9.2 mph - N/A   Clear
6:35 AM 34.0 °F 27.2 °F 17.4 °F 51% 29.94 in 10.0 mi North 8.1 mph - N/A   Clear
6:55 AM 33.1 °F 26.1 °F 17.6 °F 53% 29.93 in 10.0 mi North 8.1 mph - N/A   Clear
7:15 AM 34.3 °F 29.2 °F 18.1 °F 52% 29.93 in 10.0 mi North 5.8 mph - N/A   Clear
7:35 AM 32.0 °F 26.4 °F 17.1 °F 54% 29.93 in 10.0 mi North 5.8 mph - N/A   Clear
7:55 AM 32.0 °F 25.6 °F 18.1 °F 57% 29.92 in 10.0 mi North 6.9 mph - N/A   Clear
8:15 AM 33.4 °F 27.3 °F 19.0 °F 56% 29.92 in 10.0 mi NNW 6.9 mph - N/A   Clear
8:55 AM 41.2 °F 39.2 °F 19.4 °F 42% 29.91 in 10.0 mi NNW 3.5 mph - N/A   Unknown
9:15 AM 44.1 °F - 18.3 °F 36% 29.90 in 10.0 mi Calm Calm - N/A   Clear
9:35 AM 46.8 °F - 18.7 °F 33% 29.90 in 10.0 mi ENE 4.6 mph - N/A   Clear
9:55 AM 47.8 °F - 18.9 °F 32% 29.89 in 10.0 mi East 6.9 mph - N/A   Clear
10:15 AM 48.2 °F - 19.2 °F 32% 29.88 in 10.0 mi SE 3.5 mph - N/A   Clear
10:35 AM 49.1 °F - 19.9 °F 32% 29.88 in 10.0 mi Calm Calm - N/A   Clear
10:55 AM 50.7 °F - 20.8 °F 31% 29.87 in 10.0 mi Calm Calm - N/A   Clear
11:15 AM 52.9 °F - 21.2 °F 29% 29.87 in 10.0 mi NW 5.8 mph - N/A   Clear
11:35 AM 54.1 °F - 21.6 °F 28% 29.86 in 10.0 mi WSW 6.9 mph - N/A   Clear
11:55 AM 55.4 °F - 21.9 °F 27% 29.83 in 10.0 mi SSW 6.9 mph - N/A   Clear
12:15 PM 57.2 °F - 22.1 °F 26% 29.82 in 10.0 mi WSW 10.4 mph 16.1 mph N/A   Clear
12:35 PM 58.8 °F - 21.9 °F 24% 29.80 in 10.0 mi SW 6.9 mph - N/A   Clear
12:55 PM 61.3 °F - 21.7 °F 22% 29.79 in 10.0 mi SW 11.5 mph 17.3 mph N/A   Clear
1:15 PM 63.3 °F - 21.2 °F 20% 29.76 in 10.0 mi SW 11.5 mph 18.4 mph N/A   Clear
1:35 PM 64.6 °F - 20.5 °F 19% 29.75 in 10.0 mi SW 15.0 mph 20.7 mph N/A   Clear
1:55 PM 66.2 °F - 20.1 °F 17% 29.73 in 10.0 mi North - - N/A   Clear
2:15 PM 68.7 °F - 18.7 °F 15% 29.71 in 10.0 mi SW 10.4 mph 24.2 mph N/A   Clear
2:35 PM 69.3 °F - 18.5 °F 14% 29.70 in 10.0 mi SW 16.1 mph 27.6 mph N/A   Clear
2:55 PM 71.1 °F - 17.4 °F 13% 29.69 in 10.0 mi North - - N/A   Clear
3:15 PM 71.8 °F - 17.2 °F 13% 29.68 in 10.0 mi SW 25.3 mph - N/A   Clear
3:35 PM 72.5 °F - 16.3 °F 12% 29.66 in 10.0 mi North - - N/A   Clear
3:55 PM 72.7 °F - 16.3 °F 12% 29.65 in 10.0 mi SW 19.6 mph - N/A   Clear
4:15 PM 73.9 °F - 16.3 °F 11% 29.64 in 10.0 mi SW 21.9 mph - N/A   Clear
4:35 PM 72.7 °F - 15.4 °F 11% 29.63 in 10.0 mi SSW 24.2 mph 31.1 mph N/A   Clear
4:55 PM 71.2 °F - 14.0 °F 11% 29.62 in 10.0 mi SW 24.2 mph 31.1 mph N/A   Clear
5:15 PM 71.1 °F - 13.6 °F 11% 29.62 in 10.0 mi SW 18.4 mph - N/A   Clear
5:35 PM 71.1 °F - 14.0 °F 11% 29.61 in 10.0 mi SW 18.4 mph - N/A   Clear
5:55 PM 71.1 °F - 14.0 °F 11% 29.61 in 10.0 mi SW 20.7 mph 25.3 mph N/A   Clear
6:15 PM 69.8 °F - 13.3 °F 11% 29.60 in 10.0 mi SSW 15.0 mph 21.9 mph N/A   Clear
6:35 PM 68.0 °F - 13.5 °F 12% 29.60 in 10.0 mi SW 17.3 mph 23.0 mph N/A   Clear
6:55 PM 66.6 °F - 13.6 °F 13% 29.61 in 10.0 mi SW 18.4 mph 24.2 mph N/A   Clear
7:15 PM 65.8 °F - 13.1 °F 13% 29.61 in 10.0 mi SW 17.3 mph 24.2 mph N/A   Clear
7:35 PM 64.2 °F - 13.6 °F 14% 29.60 in 10.0 mi SSW 13.8 mph - N/A   Clear
7:55 PM 62.8 °F - 13.3 °F 15% 29.60 in 10.0 mi SW 15.0 mph - N/A   Clear
8:15 PM 61.9 °F - 13.1 °F 15% 29.60 in 10.0 mi SSW 13.8 mph 21.9 mph N/A   Clear
8:35 PM 59.5 °F - 14.0 °F 17% 29.59 in 10.0 mi SSW 13.8 mph - N/A   Clear
8:55 PM 57.7 °F - 14.9 °F 19% 29.58 in 10.0 mi SSW 12.7 mph - N/A   Clear
9:15 PM 58.3 °F - 14.0 °F 18% 29.58 in 10.0 mi SSW 11.5 mph 17.3 mph N/A   Clear
9:35 PM 59.2 °F - 13.3 °F 17% 29.58 in 10.0 mi SSW 13.8 mph - N/A   Clear
9:55 PM 57.4 °F - 14.0 °F 18% 29.57 in 10.0 mi SSW 11.5 mph - N/A   Clear
10:35 PM 55.4 °F - 13.8 °F 19% 29.56 in 10.0 mi SSW 13.8 mph - N/A   Clear
10:55 PM 54.9 °F - 13.6 °F 20% 29.55 in 10.0 mi SSW 13.8 mph - N/A   Clear
11:15 PM 53.6 °F - 14.2 °F 21% 29.55 in 10.0 mi SSW 16.1 mph 20.7 mph N/A   Clear
11:35 PM 52.7 °F - 14.4 °F 22% 29.56 in 10.0 mi SSW 12.7 mph - N/A   Clear
11:55 PM 55.6 °F - 14.4 °F 20% 29.56 in 10.0 mi SW 20.7 mph - N/A   Clear